Date,TemperatureHighF,TemperatureAvgF,TemperatureLowF,DewpointHighF,DewpointAvgF,DewpointLowF,HumidityHigh,HumidityAvg,HumidityLow,PressureMaxIn,PressureMinIn,WindSpeedMaxMPH,WindSpeedAvgMPH,GustSpeedMaxMPH,PrecipitationSumIn
2013-4-1,80.8,64.9,52.0,65.6,55.1,39.3,99,76,27,29.99,29.88,4,1,14,0.51
2013-4-2,79.3,61.1,43.3,51.2,41.4,30.5,97,55,20,30.16,29.99,5,1,16,0.00
2013-4-3,68.2,57.8,47.7,45.9,34.9,29.5,72,44,25,30.25,30.09,5,2,14,0.02
2013-4-4,53.4,45.6,41.5,46.4,43.7,38.4,100,94,57,30.22,29.94,8,3,17,0.86
2013-4-5,62.6,48.7,38.1,48.6,43.5,37.9,100,84,58,30.06,29.90,6,2,15,0.00
2013-4-6,82.8,59.7,39.4,51.2,38.3,21.8,99,57,12,30.23,30.05,6,1,14,0.00
2013-4-7,82.8,63.6,42.6,57.2,50.1,40.2,100,66,33,30.25,30.11,4,1,14,0.00
2013-4-8,87.3,68.5,50.9,65.1,55.2,50.6,100,68,32,30.21,30.09,3,1,11,0.00
2013-4-9,93.4,72.1,55.0,68.6,59.3,54.8,100,70,30,30.24,30.12,3,0,8,0.00
2013-4-10,94.1,73.8,57.6,68.1,60.8,57.0,100,69,31,30.18,29.99,3,1,11,0.00
2013-4-11,88.9,72.1,60.3,72.5,66.9,60.0,100,86,50,30.02,29.78,5,1,11,0.02
2013-4-12,85.6,72.4,61.2,72.9,62.1,43.6,100,75,27,29.89,29.73,5,2,18,0.33
2013-4-13,87.4,66.3,45.1,49.0,42.2,28.9,92,48,13,30.03,29.88,3,1,11,0.00
2013-4-14,75.6,60.9,48.0,61.8,54.2,46.3,100,81,50,30.11,29.84,7,1,30,0.30
2013-4-15,80.1,67.2,59.9,65.9,62.4,59.6,100,86,58,30.18,29.95,3,1,8,0.00
2013-4-16,91.8,72.1,59.2,69.7,61.8,58.9,100,74,35,30.28,30.18,3,1,11,0.00
2013-4-17,92.8,73.5,55.8,70.4,61.7,55.5,100,71,36,30.26,30.12,2,0,8,0.00
2013-4-18,90.3,73.8,60.8,71.2,64.1,58.7,100,75,43,30.16,30.00,3,1,14,0.00
2013-4-19,87.1,70.4,51.1,73.3,66.8,50.8,100,90,55,30.01,29.83,6,2,24,0.56
2013-4-20,77.7,56.8,45.5,50.6,42.4,30.5,100,66,20,30.26,29.96,4,1,14,0.02
2013-4-21,74.3,57.5,40.5,48.7,42.4,37.9,100,63,29,30.37,30.25,7,2,21,0.00
2013-4-22,74.5,59.6,49.8,46.7,36.7,29.6,78,47,19,30.33,30.18,6,3,16,0.00
2013-4-23,82.8,61.7,44.8,53.9,47.3,36.6,93,63,29,30.24,30.11,4,1,11,0.00
2013-4-24,86.5,68.3,52.9,62.5,57.7,52.3,100,73,38,30.19,30.05,4,1,13,0.00
2013-4-25,86.5,71.0,54.1,64.8,55.4,33.6,94,64,16,30.26,30.08,4,1,14,0.00
2013-4-26,86.2,64.9,49.8,59.7,50.9,40.3,100,64,27,30.41,30.25,5,1,15,0.00
2013-4-27,76.8,61.9,53.6,60.4,55.4,48.7,100,80,52,30.38,30.22,3,1,9,0.35
2013-4-28,81.9,64.1,56.7,69.4,61.3,52.4,100,91,61,30.23,30.02,4,1,17,1.79
2013-4-29,79.5,67.0,60.3,70.4,64.1,60.0,100,91,65,30.08,29.96,2,0,10,0.62
2013-4-30,88.2,66.8,57.4,67.7,62.5,57.1,100,88,49,30.14,29.98,3,1,8,0.02